Weather History for Chippewa, MI

Change the Weather History Date:

Monday, January 21, 2013

  Actual Average Record
Temperature  
Mean Temperature 2 °F -  
Max Temperature 10 °F 23 °F 34 °F (1993)
Min Temperature -7 °F -3 °F -27 °F (1984)
Degree Days  
Heating Degree Days 64    
Moisture  
Dew Point -1 °F    
Average Humidity 86    
Maximum Humidity 100    
Minimum Humidity 73    
Precipitation  
Precipitation 0.00 in - - ()
Sea Level Pressure  
Sea Level Pressure 29.89 in    
Wind  
Wind Speed 5 mph (West)    
Max Wind Speed 16 mph    
Max Gust Speed 21 mph    
Visibility 6 miles    
Events      
Averages and records for this station are not official NWS values.
T = Trace of Precipitation, MM = Missing Value Source: NWS Daily Summary

Daily Weather History Graph

Daily Weather History Graph

Search for Another Location

Airport:

Trip Planner

Search our weather history database for the weather conditions in past years. The results will help you decide how hot, cold, wet, or windy it might be!

Date:

Astronomy

Jan. 21, 2013 Rise Set
Actual Time 8:12 AM EST 5:27 PM EST
Civil Twilight 7:39 AM EST 6:00 PM EST
Nautical Twilight 7:02 AM EST 6:36 PM EST
Astronomical Twilight 6:26 AM EST 7:12 PM EST
Moon 1:05 PM EST (1/21) 3:40 AM EST (1/21)
Length of Visible Light 10h 21m
Length of Day
9h 14m
Waxing Gibbous, 75% of the Moon is Illuminated
Jan 21
Waxing Gibbous
Jan 26
Full
Feb 3
Last Quarter
Feb 10
New
Feb 17
First Quarter

Hourly Weather History & Observations

Time (EST) Temp. Windchill Dew Point Humidity Pressure Visibility Wind Dir Wind Speed Gust Speed Precip Events Conditions
12:15 AM -0.4 °F - -2.2 °F 92% 30.01 in 10.0 mi Calm Calm - N/A   Partly Cloudy
12:35 AM -2.2 °F - -4.0 °F 92% 30.00 in 10.0 mi Calm Calm - N/A   Clear
12:55 AM -0.4 °F -10.4 °F -2.2 °F 92% 29.99 in 10.0 mi WSW 4.6 mph - N/A   Clear
1:15 AM -0.4 °F -10.4 °F -2.2 °F 92% 29.98 in 10.0 mi WSW 4.6 mph - N/A   Clear
1:35 AM -2.2 °F - -4.0 °F 92% 29.98 in 10.0 mi Calm Calm - N/A   Partly Cloudy
1:55 AM -2.2 °F - -5.8 °F 85% 29.97 in 10.0 mi Calm Calm - N/A   Partly Cloudy
2:15 AM -4.0 °F - -5.8 °F 92% 29.97 in 10.0 mi Calm Calm - N/A   Mostly Cloudy
2:35 AM -5.8 °F - -7.6 °F 92% 29.97 in 10.0 mi Calm Calm - N/A   Overcast
2:55 AM -7.6 °F -16.5 °F -9.4 °F 92% 29.96 in 10.0 mi South 3.5 mph - N/A   Overcast
3:15 AM -5.8 °F -14.5 °F -5.8 °F 100% 29.96 in 10.0 mi SSW 3.5 mph - N/A   Overcast
3:35 AM -2.2 °F -10.4 °F -4.0 °F 92% 29.95 in 10.0 mi SSW 3.5 mph - N/A   Overcast
3:55 AM -0.4 °F - -2.2 °F 92% 29.94 in 10.0 mi Calm Calm - N/A   Overcast
4:15 AM -2.2 °F -10.4 °F -5.8 °F 85% 29.93 in 10.0 mi ESE 3.5 mph - N/A   Overcast
4:35 AM -4.0 °F -17.8 °F -7.6 °F 85% 29.92 in 10.0 mi SSE 6.9 mph - N/A   Overcast
4:55 AM -4.0 °F -14.6 °F -5.8 °F 92% 29.91 in 10.0 mi South 4.6 mph - N/A   Overcast
5:15 AM -2.2 °F -12.5 °F -5.8 °F 85% 29.90 in 10.0 mi South 4.6 mph - N/A   Overcast
5:35 AM -2.2 °F -14.2 °F -5.8 °F 85% 29.89 in 10.0 mi South 5.8 mph - N/A   Overcast
5:55 AM -0.4 °F -12.0 °F -5.8 °F 78% 29.89 in 10.0 mi South 5.8 mph - N/A   Overcast
6:15 AM -2.2 °F -12.5 °F -5.8 °F 85% 29.88 in 10.0 mi South 4.6 mph - N/A   Overcast
6:35 AM -2.2 °F -12.5 °F -5.8 °F 85% 29.88 in 10.0 mi South 4.6 mph - N/A   Overcast
6:55 AM -0.4 °F -10.4 °F -4.0 °F 85% 29.88 in 10.0 mi South 4.6 mph - N/A   Overcast
7:15 AM -0.4 °F -10.4 °F -4.0 °F 85% 29.87 in 10.0 mi South 4.6 mph - N/A   Overcast
7:35 AM -0.4 °F -10.4 °F -4.0 °F 85% 29.86 in 10.0 mi South 4.6 mph - N/A   Overcast
7:55 AM -0.4 °F -10.4 °F -2.2 °F 92% 29.86 in 10.0 mi South 4.6 mph - N/A   Overcast
8:15 AM -0.4 °F -10.4 °F -2.2 °F 92% 29.85 in 10.0 mi South 4.6 mph - N/A   Overcast
8:35 AM 1.4 °F -6.2 °F -2.2 °F 85% 29.85 in 10.0 mi SW 3.5 mph - N/A   Overcast
8:55 AM 1.4 °F -8.3 °F -2.2 °F 85% 29.85 in 2.5 mi SSW 4.6 mph - N/A   Overcast
9:15 AM 1.4 °F -8.3 °F -0.4 °F 92% 29.85 in 1.5 mi SW 4.6 mph - N/A   Overcast
9:35 AM 3.2 °F -6.2 °F -0.4 °F 85% 29.85 in 7.0 mi SW 4.6 mph - N/A   Overcast
9:55 AM 3.2 °F - 1.4 °F 92% 29.85 in 10.0 mi Calm Calm - N/A   Overcast
10:15 AM 5.0 °F -4.1 °F 1.4 °F 85% 29.84 in 10.0 mi WSW 4.6 mph - N/A   Partly Cloudy
10:35 AM 6.8 °F -4.8 °F 1.4 °F 79% 29.84 in 10.0 mi WSW 6.9 mph - N/A   Clear
10:55 AM 6.8 °F -4.8 °F 1.4 °F 79% 29.85 in 10.0 mi West 6.9 mph - N/A   Clear
11:15 AM 8.6 °F -3.7 °F 3.2 °F 79% 29.84 in 10.0 mi West 8.1 mph - N/A   Partly Cloudy
11:35 AM 10.4 °F 2.2 °F 3.2 °F 73% 29.84 in 10.0 mi West 4.6 mph - N/A   Mostly Cloudy
11:55 AM 10.4 °F -4.1 °F 3.2 °F 73% 29.83 in 10.0 mi West 11.5 mph 18.4 mph N/A   Mostly Cloudy
12:15 PM 8.6 °F -7.7 °F 3.2 °F 79% 29.83 in 10.0 mi West 13.8 mph - N/A   Mostly Cloudy
12:35 PM 10.4 °F -5.4 °F 3.2 °F 73% 29.82 in 10.0 mi WSW 13.8 mph 19.6 mph N/A   Mostly Cloudy
12:55 PM 10.4 °F -6.6 °F 3.2 °F 73% 29.81 in 5.0 mi West 16.1 mph 20.7 mph N/A   Mostly Cloudy
1:15 PM 10.4 °F -6.0 °F 3.2 °F 73% 29.81 in 5.0 mi West 15.0 mph 18.4 mph N/A   Overcast
1:35 PM 10.4 °F -4.1 °F 3.2 °F 73% 29.81 in 8.0 mi West 11.5 mph - N/A   Overcast
1:55 PM 10.4 °F -4.8 °F 3.2 °F 73% 29.80 in 2.5 mi WSW 12.7 mph 17.3 mph N/A   Overcast
2:15 PM 10.4 °F -6.0 °F 3.2 °F 73% 29.80 in 5.0 mi West 15.0 mph 19.6 mph N/A   Overcast
2:35 PM 10.4 °F -3.3 °F 3.2 °F 73% 29.81 in 5.0 mi West 10.4 mph - N/A   Overcast
2:55 PM 10.4 °F -0.4 °F 5.0 °F 79% 29.81 in 1.0 mi NNW 6.9 mph - N/A   Overcast
3:15 PM 8.6 °F -2.6 °F 3.2 °F 79% 29.81 in 0.8 mi NNW 6.9 mph - N/A   Overcast
3:35 PM 8.6 °F -2.6 °F 3.2 °F 79% 29.82 in 0.8 mi NW 6.9 mph - N/A   Overcast
3:55 PM 6.8 °F -2.0 °F 3.2 °F 85% 29.83 in 1.0 mi NNW 4.6 mph - N/A   Overcast
4:15 PM 6.8 °F -3.5 °F 3.2 °F 85% 29.83 in 7.0 mi NW 5.8 mph - N/A   Overcast
4:35 PM 6.8 °F -4.8 °F 1.4 °F 79% 29.84 in 2.5 mi NNW 6.9 mph - N/A   Overcast
4:55 PM 6.8 °F -2.0 °F 3.2 °F 85% 29.84 in 2.5 mi WNW 4.6 mph - N/A   Overcast
5:15 PM 5.0 °F -6.9 °F 3.2 °F 92% 29.85 in 3.0 mi WNW 6.9 mph - N/A   Overcast
5:35 PM 6.8 °F -3.5 °F 3.2 °F 85% 29.86 in 0.8 mi NW 5.8 mph - N/A   Overcast
5:55 PM 6.8 °F -7.8 °F 3.2 °F 85% 29.86 in 0.2 mi North 10.4 mph - N/A   Overcast
6:15 PM 5.0 °F -8.1 °F 3.2 °F 92% 29.87 in 1.0 mi North 8.1 mph - N/A   Overcast
6:35 PM 5.0 °F -6.9 °F 3.2 °F 92% 29.88 in 1.2 mi North 6.9 mph - N/A   Overcast
6:55 PM 3.2 °F -9.1 °F 1.4 °F 92% 29.89 in 1.0 mi North 6.9 mph - N/A   Overcast
7:15 PM 3.2 °F -6.2 °F 1.4 °F 92% 29.90 in 2.0 mi West 4.6 mph - N/A   Overcast
7:35 PM 3.2 °F -7.8 °F 1.4 °F 92% 29.91 in 1.0 mi West 5.8 mph - N/A   Overcast
7:55 PM 3.2 °F -10.3 °F 1.4 °F 92% 29.91 in 0.8 mi West 8.1 mph - N/A   Overcast
8:15 PM 3.2 °F -13.9 °F -0.4 °F 85% 29.92 in 1.2 mi West 12.7 mph 17.3 mph N/A   Overcast
8:35 PM 1.4 °F -14.5 °F -0.4 °F 92% 29.92 in 3.0 mi WNW 10.4 mph 18.4 mph N/A   Overcast
8:55 PM 1.4 °F -12.5 °F -0.4 °F 92% 29.92 in 3.0 mi West 8.1 mph - N/A   Overcast
9:15 PM 1.4 °F -15.3 °F -2.2 °F 85% 29.92 in 5.0 mi West 11.5 mph - N/A   Overcast
9:35 PM 1.4 °F -13.5 °F -2.2 °F 85% 29.92 in 3.0 mi West 9.2 mph 18.4 mph N/A   Overcast
9:55 PM 1.4 °F -14.5 °F -2.2 °F 85% 29.92 in 2.0 mi WNW 10.4 mph - N/A   Overcast
10:15 PM 1.4 °F -14.5 °F -0.4 °F 92% 29.92 in 1.0 mi West 10.4 mph - N/A   Overcast
10:35 PM 1.4 °F -13.5 °F -0.4 °F 92% 29.93 in 0.8 mi NW 9.2 mph - N/A   Overcast
10:55 PM 1.4 °F -6.2 °F -0.4 °F 92% 29.94 in 0.8 mi NNW 3.5 mph - N/A   Overcast
11:15 PM 1.4 °F -12.5 °F -2.2 °F 85% 29.94 in 2.0 mi NNE 8.1 mph - N/A   Overcast
11:35 PM -0.4 °F -18.4 °F -2.2 °F 92% 29.94 in 2.0 mi NNE 12.7 mph - N/A   Overcast
11:55 PM -0.4 °F -15.7 °F -4.0 °F 85% 29.95 in 3.0 mi NNE 9.2 mph - N/A   Overcast